Location: Sungai Dangang
(2.7500°N, 113.8333°E)
Time: 22:46:38
(UTC+00:00)

H-2A R/B - Pass Details

Date: 16 May 2021
Orbit: 501 x 538 km, 97.3° (Epoch: 12 March)

Event Time Altitude Azimuth Distance (km) Brightness Sun altitude
Rises 21:34:31 0° 3° (N) 2,636 6.6 -10.0°
Reaches altitude 10° 21:36:37 10° 359° (N) 1,756 5.6 -9.5°
Maximum altitude 21:40:20 54° 281° (W) 646 2.9 -8.7°
Drops below altitude 10° 21:44:05 10° 203° (SSW) 1,780 5.0 -7.8°
Sets 21:46:15 0° 199° (SSW) 2,676 6.0 -7.3°
